SCP
1 1 1 1 2 3 3 3 2 2 2 2 1 1 1 1 1 1 1 1 1 0 1 1 0 0 1 1 1 1 1 1 1 1 1 1 1 2 2 2 1 1 0
1 1 1 1 1 2 2 2 2 2 2 2 2 1 1 1 1 1 1 1 1 0 0 0 0 0 1 1 1 1 1 1 0 0 0 1 1 1 2 2 1 1 0
1 1 1 1 1 1 1 1 1 1 1 1 1 1 1 1 1 0 0 0 0 0 0 0 0 0 1 1 1 1 1 1 0 0 0 0 1 1 1 1 1 0 0
1 1 1 1 1 1 1 1 1 1 1 1 1 1 1 0 0 0 0 0 0 0 0 0 0 0 0 0 0 1 1 0 0 0 0 0 0 1 1 1 0 0 0
1 1 0 0 0 0 1 1 0 0 0 0 0 0 0 0 0 0 0 0 0 0 0 0 0 0 0 0 0 0 0 0 0 0 0 0 0 0 0 0 0 0 0
0 0 0 0 0 0 0 0 0 0 0 0 0 0 0 0 0 0 0 0 0 0 0 0 0 0 0 0 0 0 0 0 0 0 0 0 0 0 0 0 0 0 0
0 0 0 0 0 0 0 0 0 0 0 0 0 0 0 0 0 0 0 0 0 0 0 0 0 0 0 0 0 0 0 0 0 0 0 0 0 0 0 0 0 0 0
0 0 0 0 0 0 0 0 0 0 0 0 0 0 0 0 0 0 0 0 0 0 0 0 0 0 0 0 0 0 0 0 0 0 0 0 0 0 0 0 0 0 0
0 0 0 0 0 0 0 0 0 0 0 0 0 0 0 0 0 0 0 0 0 0 0 0 0 0 0 0 0 0 0 0 0 0 0 0 0 0 0 0 0 0 0
0 0 0 0 0 0 0 0 0 0 0 0 0 0 0 0 0 0 0 0 0 0 0 0 0 0 0 0 0 0 0 0 0 0 0 0 0 0 0 0 0 0 0
0 0 0 0 0 0 0 1 1 1 0 0 1 1 1 0 0 0 0 0 0 0 0 0 0 0 0 0 0 0 0 0 0 0 0 0 0 0 0 0 0 0 0
0 0 0 0 0 0 0 1 1 1 0 0 1 1 1 0 0 0 0 0 0 0 0 0 0 0 0 0 0 0 0 0 0 0 0 0 0 0 0 0 0 0 1
1 1 1 1 0 0 0 0 0 0 0 0 0 0 0 0 0 0 0 0 0 0 0 0 0 0 0 0 0 0 0 0 0 0 0 0 0 0 0 0 0 1 1
1 1 1 1 1 0 0 0 0 0 0 0 0 0 0 0 0 0 0 0 0 0 0 0 0 0 0 0 0 0 0 0 0 0 0 0 0 0 0 0 0 0 0
1 1 1 1 1 1 0 0 0 0 0 0 0 0 0 0 0 0 0 0 0 0 0 0 0 0 0 0 0 0 0 0 0 0 0 0 0 0 0 0 0 0 0
1 1 1 1 1 1 0 0 0 0 0 0 0 0 0 0 0 0 0 0 0 0 0 0 0 0 0 0 0 0 0 0 0 0 0 0 0 0 0 0 0 0 0
1 1 1 1 1 1 1 0 0 0 0 0 0 0 0 0 0 0 0 0 0 0 0 0 0 0 0 0 0 0 0 0 0 0 0 0 0 0 0 0 0 0 0
1 1 1 1 1 1 1 1 0 0 0 0 0 0 0 0 0 0 0 0 0 0 0 0 0 0 0 0 0 0 0 0 0 0 0 0 0 0 0 0 0 0 0
0 1 1 0 0 0 0 0 0 1 1 1 0 0 0 0 0 0 0 0 0 0 0 0 0 0 0 0 0 0 0 0 0 0 0 0 0 0 0 0 0 0 0
0 0 0 0 0 0 0 0 0 0 1 1 1 0 0 0 0 0 0 0 0 0 0 0 0 0 0 0 0 0 0 0 0 0 0 0 0 0 0 0 0 0 0
0 0 0 0 0 0 0 0 0 0 1 1 1 0 0 0 0 0 0 0 0 0 0 0 0 0 0 0 0 0 0 0 0 0 0 0 0 0 0 0 0 0 0
0 0 0 0 0 0 0 0 0 0 0 1 0 0 0 0 0 0 0 0 0 0 0 0 0 0 0 0 0 0 0 0 0 0 0 0 0 0 0 0 0 0 0
0 0 0 0 0 0 0 0 0 0 0 0 0 0 0 0 0 0 0 0 0 0 0 0 0 0 0 0 0 0 0 0 0 0 0 0 0 0 0 0 0 0 0
0 0 0 0 0 0 0 0 0 0 0 0 0 0 0 0 0 0 0 0 0 0 0 0 0 0 0 0 0 0 0 0 0 0 0 0 0 0 0 0 0 0 0
0 0 0 0 0 0 0 0 0 0 0 0 0 0 0 0 0 0 0 0 0 0 0 0 0 0 0 0 0 0 0 0 0 0 0 0 0 0 0 0 0 0 0
0 0 0 0 0 0 0 0 0 0 0 0 0 0 0 0 0 0 0 0 0 0 0 0 0 0 0 0 0 0 0 0 0 0 0 0 0 0 0 0 0 0 0
Wind_Speed
4 4 4 4 4 3 3 3 3 3 3 3 3 3 3 3 3 3 3 3 3 3 4 3 3 3 2 2 2 1 1 0 1 0 1 1 1 2 3 2 3 3 4
4 4 4 3 3 3 3 3 3 3 3 3 3 4 4 4 3 3 4 4 4 4 4 4 4 3 3 2 2 2 1 0 1 1 0 0 1 2 2 2 2 3 3
4 4 3 2 2 3 2 2 3 3 3 4 3 4 4 4 4 4 4 4 4 4 4 4 4 4 3 2 2 1 1 1 1 1 1 1 1 1 2 2 3 2 3
3 3 2 2 2 2 2 2 3 3 3 3 4 4 4 5 6 6 5 4 4 4 4 4 4 4 4 4 2 2 1 1 1 1 1 1 1 1 2 2 2 1 2
3 3 3 1 2 2 2 3 3 3 4 3 4 4 4 4 6 8 7 5 4 4 3 3 4 4 5 4 2 2 1 0 0 1 1 1 1 1 1 1 2 2 1
2 2 2 2 2 2 2 3 3 3 4 4 4 4 5 5 7 8 7 5 4 4 4 3 2 3 3 4 3 2 1 0 0 0 0 1 1 1 1 2 2 2 1
2 2 2 2 2 2 3 3 3 3 3 3 4 4 4 5 7 8 9 5 4 3 3 4 4 5 5 3 1 1 2 1 1 1 0 0 1 1 1 1 1 2 1
3 2 2 2 3 3 3 3 3 2 2 2 2 2 3 4 6 8 10 4 3 3 3 4 4 4 6 5 3 2 2 1 0 2 1 1 1 0 1 1 1 1 0
3 2 2 2 2 2 3 2 2 1 1 1 1 2 2 3 5 7 8 3 2 2 3 4 4 4 6 6 2 2 2 1 1 2 1 1 2 1 1 0 0 1 0
3 2 2 2 1 2 2 1 1 1 1 2 2 2 2 3 4 6 7 3 2 1 1 2 5 5 6 6 2 2 1 1 1 1 1 1 3 3 4 3 1 1 0
3 2 2 1 1 2 1 0 1 1 1 1 1 1 1 1 1 3 5 3 4 3 2 2 2 5 5 5 3 1 1 2 2 1 1 1 2 2 2 2 2 2 1
2 2 2 1 1 2 1 1 1 1 2 1 1 1 1 1 1 2 3 4 4 3 3 2 2 4 5 5 3 2 3 3 2 1 0 0 0 1 1 2 2 2 2
3 2 2 1 1 1 1 2 2 2 2 1 1 1 1 1 1 2 3 5 4 2 2 4 5 5 5 4 4 4 3 2 1 1 0 0 1 1 1 1 2 2 3
3 2 2 2 2 1 1 2 1 1 2 2 2 1 1 1 1 1 2 2 3 3 3 4 6 7 6 5 4 4 3 2 2 1 1 1 1 1 2 2 2 2 2
3 2 2 2 2 1 1 1 1 2 1 1 2 3 3 2 2 3 3 3 3 4 5 3 3 3 3 3 3 3 2 2 2 1 1 1 2 2 2 2 2 2 2
2 2 2 2 2 3 3 2 1 2 3 2 2 1 1 1 2 3 4 5 5 5 4 4 4 3 3 2 2 1 1 1 1 1 2 2 2 2 2 2 2 3 3
2 2 2 2 3 3 3 3 3 4 5 5 6 5 5 4 5 5 5 7 8 5 3 5 4 3 2 2 2 2 1 1 1 1 2 2 2 2 2 2 2 2 3
3 3 3 3 3 3 3 3 3 3 4 4 7 9 9 8 8 8 5 5 5 5 5 5 4 3 2 2 2 1 1 2 2 2 2 2 2 2 2 3 3 3 3
4 3 3 3 3 4 4 4 3 3 3 3 3 5 8 8 9 9 5 4 6 6 4 4 3 2 2 2 2 1 1 1 1 1 1 2 2 2 3 3 3 4 3
4 4 4 4 5 4 4 3 3 3 3 3 3 4 5 5 5 6 6 6 6 5 5 3 2 2 2 2 2 2 2 2 2 2 2 2 3 3 3 4 3 3 3
5 5 8 6 6 5 4 4 4 4 3 3 3 3 6 6 6 5 5 6 5 5 4 3 3 3 3 3 2 2 3 2 2 2 2 2 3 2 3 3 4 4 4
6 5 5 5 5 4 4 4 4 4 4 4 3 4 7 6 5 4 4 3 4 4 4 3 3 3 3 3 2 2 2 2 2 2 2 2 2 3 3 3 4 4 4
6 6 5 5 5 4 5 5 4 4 5 5 4 4 5 5 5 4 3 3 3 3 3 3 4 4 3 3 2 2 2 2 2 2 2 3 3 3 3 4 5 5 5
7 7 6 5 5 5 5 5 5 5 5 4 4 3 4 5 5 4 4 3 3 3 3 3 4 5 5 3 2 2 2 2 2 2 3 3 4 4 4 4 5 6 5
8 7 7 6 6 5 5 5 5 5 5 4 4 4 4 4 4 4 4 4 4 4 4 4 4 4 4 5 4 3 2 2 2 2 3 3 4 5 5 6 6 6 6
8 8 7 6 6 5 5 5 5 5 5 5 5 4 4 4 4 4 3 3 3 4 4 4 5 5 5 4 4 4 4 4 4 4 3 4 5 5 6 6 8 7 7
Wind_Direction
85 71 64 54 44 33 40 34 23 10 356 2 8 4 359 4 358 354 352 5 9 4 0 0 358 350 339 333 325 310 284 196 178 277 57 65 77 102 106 107 111 111 104
96 86 70 54 44 34 32 20 9 5 1 8 11 8 7 7 356 359 359 9 8 9 7 4 1 356 359 353 350 355 339 341 165 171 159 83 102 125 129 121 112 113 116
106 103 92 69 51 42 34 16 12 11 6 11 12 11 7 5 9 7 6 11 11 12 12 10 4 2 359 356 359 358 357 46 105 155 173 145 142 137 119 109 108 115 120
108 105 88 61 50 41 32 23 19 16 11 14 11 16 15 17 16 6 360 4 9 13 13 12 9 9 1 354 7 11 30 69 129 148 161 151 147 155 144 139 130 143 137
105 102 95 76 60 55 40 34 29 19 19 24 18 19 16 31 22 9 351 1 6 7 12 22 25 27 22 12 11 2 4 36 89 135 140 129 142 149 166 168 149 148 135
116 106 104 85 71 62 50 46 41 28 21 22 25 30 28 30 16 11 359 348 352 358 6 8 12 28 29 29 33 29 27 81 90 57 101 125 144 157 161 167 153 153 183
110 96 93 92 85 56 47 46 37 29 28 33 35 35 40 35 14 4 355 339 342 357 5 0 11 21 13 3 14 57 55 85 184 200 208 229 211 194 175 176 177 193 209
124 109 96 93 84 71 58 45 31 25 23 32 34 40 41 33 10 359 345 336 346 11 15 9 14 15 8 357 9 54 66 51 125 187 205 244 215 183 179 202 197 188 164
117 103 83 68 71 71 67 47 30 10 355 12 37 50 44 38 10 358 347 323 345 18 25 27 15 14 3 7 21 51 61 58 75 102 139 195 208 232 219 86 101 124 185
115 101 102 101 78 74 81 44 23 343 340 360 38 36 35 42 20 4 353 337 337 348 31 63 38 15 10 15 17 24 39 353 4 84 136 206 211 218 213 197 191 188 199
127 116 113 115 138 124 111 55 295 319 348 344 9 19 36 47 39 6 4 352 332 335 5 32 29 8 8 7 11 14 325 305 305 286 207 197 204 196 191 188 192 183 194
129 123 116 138 237 117 130 216 238 251 251 249 278 253 182 139 358 334 336 335 334 346 352 6 17 354 349 343 341 316 309 310 283 269 186 171 171 160 173 179 202 210 221
139 136 145 160 138 121 198 230 236 240 259 244 229 229 164 152 188 290 299 310 319 320 320 319 314 309 310 300 269 272 281 268 262 242 207 199 195 178 191 211 235 234 243
146 154 176 178 192 195 238 249 254 307 337 348 5 8 21 82 54 4 306 299 303 298 296 288 282 278 276 278 278 262 243 230 222 233 225 201 204 218 225 226 221 219 238
158 182 193 200 202 199 222 315 355 48 47 336 346 347 1 28 11 358 349 353 346 353 327 296 274 268 258 243 239 230 221 209 214 224 235 231 232 236 235 230 235 249 252
179 200 208 204 201 209 198 183 193 211 192 202 231 264 323 248 260 305 327 324 320 332 325 296 291 276 267 257 248 234 223 215 210 211 232 250 253 254 252 244 242 249 257
195 219 238 221 212 231 224 207 201 213 227 242 248 249 246 257 273 287 308 319 306 301 281 277 274 270 267 260 253 245 228 203 207 246 252 248 254 258 259 264 265 268 266
214 214 240 244 236 244 240 238 226 206 204 223 228 232 238 243 256 269 291 314 288 256 246 258 262 262 264 267 265 255 231 214 216 228 243 249 263 277 283 279 274 269 269
230 227 231 253 252 245 243 250 246 219 216 218 199 205 226 238 253 262 258 251 266 275 264 252 254 258 265 263 265 259 262 268 256 249 259 264 268 273 277 278 279 283 277
226 233 245 266 267 258 247 251 257 245 231 229 216 195 189 204 227 231 222 236 247 257 266 267 265 256 257 257 251 249 238 233 236 236 247 252 254 261 273 278 283 286 277
232 215 215 240 253 259 260 254 251 250 245 236 222 191 186 214 233 234 226 224 233 246 256 265 268 262 254 245 246 254 259 249 239 240 242 247 255 263 269 272 274 278 284
251 240 221 235 246 247 256 255 256 256 257 256 222 198 202 224 251 256 247 236 228 232 238 244 263 272 272 272 266 252 257 261 264 261 267 277 276 272 273 275 280 285 287
247 252 246 244 250 242 248 259 261 260 257 254 252 229 207 224 243 249 250 247 245 244 248 244 247 255 258 255 264 280 286 285 280 283 279 277 284 285 284 282 284 287 288
255 256 254 247 249 249 250 257 259 260 261 258 255 252 236 227 235 244 246 247 248 244 245 250 255 263 265 255 247 257 262 273 286 286 289 286 286 287 291 292 291 293 291
253 256 257 258 258 258 257 261 265 271 273 271 263 259 259 253 244 241 239 237 243 243 247 249 249 254 255 255 254 245 232 238 256 289 289 285 286 286 285 287 287 289 290
251 256 259 260 260 261 261 261 265 268 270 271 268 262 264 268 266 258 252 247 246 250 251 250 250 255 245 245 244 236 222 218 226 244 261 271 274 278 284 285 290 291 291